Back to catalog

FENGYUN 1C DEB

LostPO
NORAD 37045·DEBRIS·🇨🇳 China

Launched May 10, 1999 from Taiyuan Satellite Launch Center

Loading…

Next Passes (next 24 hours)

TLE

StaleSource: Space-Track

Epoch: Oct 1, 2022, 23:14 UTC

1 37045U 99025EED 22274.96865123  .00004043  00000-0  22375-2 0  9993
2 37045  98.3289 177.8456 0125763 224.8367 134.2589 14.07879556753496

Track FENGYUN 1C DEB in real time with AllMySat

Download on the App Store